ECMWFNIL_500_rhum_000.txt.gz
RH
64 72 78 79 79 87 96 99 100 102 103 102 100 97 94 96 96 84 70 52 35 29 28 25 23 22 22 23 24 26 27 28 31 35 40 44 44 46 47 45 42 36
83 91 95 95 93 95 100 101 103 104 103 101 99 96 94 98 96 80 64 50 38 30 27 24 21 21 22 23 25 27 28 29 32 37 42 45 46 48 49 46 43 36
96 100 101 101 100 101 102 102 103 103 101 102 102 97 95 99 94 75 57 48 40 31 25 21 20 21 21 23 25 28 29 30 34 40 45 46 48 50 50 47 43 36
99 100 100 100 101 101 102 102 103 103 100 102 103 98 97 99 89 69 53 47 40 29 20 18 19 20 20 22 26 29 31 33 38 44 48 49 50 52 51 47 45 37
85 87 94 99 101 100 101 102 103 102 101 102 102 99 99 97 85 69 55 48 40 25 16 17 19 19 20 23 27 32 35 38 43 49 52 53 54 55 53 48 46 39
69 77 92 101 102 100 101 102 102 101 101 101 101 101 101 92 83 77 67 54 40 22 14 18 19 19 22 25 29 37 43 45 50 54 54 55 56 57 55 49 47 42
72 83 96 102 101 101 100 100 101 100 100 101 101 102 100 88 83 83 75 61 40 19 15 19 19 20 24 27 33 43 50 52 57 59 58 57 58 59 56 50 49 45
84 93 98 100 100 101 100 99 100 100 100 101 101 102 98 88 86 85 77 65 42 19 18 22 21 24 26 28 37 49 56 59 61 63 62 61 61 60 57 53 50 48
95 100 99 98 98 99 100 100 100 101 101 101 101 102 98 91 89 85 77 69 49 27 25 27 25 27 28 30 42 54 61 64 65 65 64 63 63 63 59 55 53 50
100 101 100 100 99 99 101 100 99 100 101 101 101 101 100 97 93 85 77 71 57 41 35 34 32 32 31 34 48 61 66 69 69 67 65 64 64 64 61 57 55 53
102 100 100 101 99 99 98 89 88 98 102 100 101 101 101 101 97 88 80 72 65 57 48 42 39 36 35 43 56 67 73 76 74 70 66 64 66 66 63 60 56 54
100 102 102 102 101 100 94 82 83 97 102 99 101 101 101 101 96 92 89 81 76 71 59 49 45 39 39 50 64 75 82 83 78 73 68 65 68 68 65 62 58 55
76 87 95 97 96 95 92 91 95 101 101 100 100 100 102 99 92 91 92 88 88 86 70 55 49 46 45 55 71 83 89 89 82 75 70 67 69 70 67 65 61 56
56 69 79 83 88 93 95 96 93 88 93 101 100 100 102 96 88 89 89 88 95 99 86 68 57 53 54 61 75 88 92 92 86 76 71 70 70 72 70 69 65 57
45 54 62 69 82 93 96 96 90 83 88 98 101 100 101 97 88 86 88 91 99 103 98 86 68 60 63 68 78 92 95 94 89 79 73 71 71 75 74 72 67 58
31 38 46 56 73 85 89 94 98 94 87 93 103 102 99 99 92 87 91 97 101 100 101 97 77 69 78 80 81 94 100 97 91 83 77 71 70 76 77 74 69 59
23 27 32 41 59 76 87 93 98 98 90 90 101 105 101 100 94 91 94 98 98 97 101 98 82 80 95 92 84 93 101 99 94 87 80 73 69 74 77 75 72 60
21 21 21 27 41 59 80 92 93 96 96 93 96 100 102 104 99 95 94 92 93 95 97 94 83 86 102 98 86 93 100 99 98 92 84 76 69 71 75 76 74 63
21 21 17 22 31 39 59 82 91 93 96 97 94 89 94 104 104 99 97 93 90 91 90 86 80 82 93 94 89 95 101 99 99 97 89 79 71 70 74 76 76 65
21 22 18 18 21 24 35 58 80 91 95 98 97 90 93 105 108 103 101 95 88 87 85 81 80 77 78 85 93 99 101 99 99 99 94 84 75 71 74 78 77 68
22 22 21 17 16 19 23 33 55 81 94 98 100 97 96 104 106 103 104 95 82 82 83 81 85 84 79 86 98 102 100 99 100 100 97 90 80 74 76 79 79 72
26 22 22 19 16 17 20 23 35 60 82 93 99 100 98 100 100 101 106 94 73 74 84 84 90 93 85 86 98 101 99 99 100 100 98 94 86 78 78 80 80 76
31 29 26 22 18 17 19 22 25 38 56 72 83 91 94 98 102 104 102 82 59 65 84 91 98 103 91 84 96 103 100 98 101 102 98 95 90 83 79 79 81 79
40 38 33 24 19 18 19 21 21 25 36 47 61 81 94 98 100 100 92 69 50 56 74 88 103 108 91 83 95 104 100 98 102 103 98 93 90 86 82 79 80 80
60 48 40 28 19 17 18 20 20 22 28 32 41 68 93 100 91 79 67 54 43 43 55 79 106 110 93 87 97 102 101 99 101 103 99 92 90 89 85 81 81 81
78 56 43 31 22 19 19 21 21 21 26 27 25 37 63 80 74 55 41 35 31 31 38 59 90 103 97 96 100 101 101 100 99 103 101 93 91 92 87 83 82 82

ECMWFNIL_500_rhum_003.txt.gz
RH
43 47 43 46 68 84 86 86 82 76 79 87 95 99 99 100 101 100 101 101 100 101 101 101 102 103 100 93 75 47 27 21 20 22 27 28 28 29 31 33 35 38
25 29 28 32 50 67 74 77 77 80 89 96 99 100 100 100 100 100 101 101 100 101 101 101 103 103 98 89 70 42 26 23 22 25 28 28 29 30 32 36 40 43
22 25 26 29 38 53 67 76 80 88 97 99 100 101 100 101 101 100 101 101 100 100 100 102 104 102 94 82 65 44 31 28 26 27 29 29 29 31 35 39 43 47
24 25 28 34 39 47 61 72 80 91 98 100 102 102 100 101 102 102 101 100 100 100 101 103 105 101 92 80 66 52 43 36 30 29 30 30 30 34 39 41 45 49
28 28 33 38 36 42 58 70 78 90 99 101 100 98 100 102 103 103 101 100 101 101 101 103 104 100 92 82 72 64 54 43 34 31 31 32 34 37 41 44 48 51
29 30 35 37 33 36 48 57 66 83 98 101 98 97 99 102 103 104 104 102 101 101 101 102 101 98 92 86 81 75 61 45 36 33 33 36 39 42 46 49 52 54
26 30 33 37 38 38 42 46 53 71 90 97 99 100 101 100 101 104 104 102 101 101 101 101 98 95 91 88 88 84 70 51 39 36 37 41 44 48 52 54 56 56
26 29 30 34 38 42 48 55 62 75 87 90 93 99 102 100 99 102 102 101 101 101 101 101 97 93 90 87 90 93 83 65 48 39 41 46 50 54 57 58 59 58
26 29 29 31 33 35 42 49 57 72 83 85 85 92 100 100 97 100 101 100 101 101 101 101 98 95 92 89 93 97 91 80 63 47 45 51 57 61 64 65 63 61
24 25 26 29 29 29 34 38 42 55 73 82 82 84 95 100 97 98 101 101 101 101 101 101 100 98 91 90 98 100 95 89 76 57 48 55 63 67 71 71 66 64
29 25 23 24 24 28 38 47 45 44 57 77 84 85 94 99 98 99 100 100 101 102 101 101 101 97 91 92 99 100 95 92 81 64 54 59 67 70 73 73 68 68
42 35 29 25 22 23 35 54 58 44 40 58 76 86 96 97 96 99 100 100 101 101 101 103 102 96 92 95 97 93 94 94 83 67 58 62 69 72 73 72 69 71
52 47 40 34 27 22 23 41 51 35 24 39 59 78 96 96 89 94 100 99 100 101 101 103 104 99 97 100 99 93 95 96 84 69 62 66 71 74 76 73 71 74
56 54 51 45 39 31 22 25 29 21 20 34 45 63 92 101 92 93 100 100 100 101 100 101 104 104 103 104 101 99 99 97 85 72 69 72 74 77 79 77 78 83
60 57 55 52 49 42 30 22 22 22 26 34 37 43 66 91 98 98 99 97 96 100 100 100 103 104 104 105 103 102 102 95 84 75 75 79 79 81 83 81 86 93
70 64 58 54 51 48 40 28 22 23 24 30 40 39 42 66 90 99 100 98 96 100 101 100 102 102 102 103 104 103 101 92 81 77 83 86 84 87 92 90 95 100
77 74 67 59 53 50 48 38 26 23 22 24 36 41 37 47 65 81 97 103 98 99 101 99 100 103 102 101 102 104 98 86 77 80 90 94 88 91 100 100 99 102
82 79 71 64 58 52 51 46 34 25 22 22 25 30 30 33 42 58 80 99 100 98 101 101 98 101 102 100 102 102 89 76 77 85 96 99 91 91 100 102 99 102
85 89 86 75 65 59 54 52 43 28 23 22 20 22 25 29 43 55 63 83 101 102 101 102 99 100 102 100 103 98 73 63 80 94 100 101 92 90 99 101 98 102
74 86 100 94 84 78 70 64 53 33 24 25 21 23 24 25 46 63 56 59 86 102 103 103 100 99 100 100 103 92 62 55 79 98 102 101 92 89 99 102 98 102
74 77 96 102 97 90 80 75 65 43 28 27 24 24 25 22 38 64 64 51 63 88 101 104 102 100 101 101 100 84 58 52 73 94 100 98 92 92 100 101 99 101
89 81 92 103 99 86 74 70 71 61 44 35 27 23 26 25 26 44 56 50 54 76 92 99 102 101 100 102 94 74 52 45 61 86 98 96 93 98 102 100 100 101
97 87 92 101 96 84 73 67 72 77 66 47 33 23 24 29 27 27 35 39 46 62 77 91 102 104 103 100 82 57 42 37 46 69 89 95 96 99 101 100 100 101
94 85 91 101 96 88 85 80 81 89 84 61 38 24 21 28 31 27 27 30 33 38 48 66 87 97 95 81 56 36 33 35 37 49 71 90 97 99 100 100 100 101
83 77 89 99 99 98 100 98 94 98 98 79 47 26 22 28 33 31 27 26 27 25 26 35 49 57 55 44 30 26 31 35 35 42 62 85 96 99 100 100 100 101
84 79 87 93 100 104 103 104 99 92 95 90 60 32 25 29 35 38 33 26 25 24 23 25 29 30 28 25 25 28 30 33 35 42 61 84 95 99 101 100 100 100

ECMWFNIL_500_rhum_006.txt.gz
RH
15 14 13 11 12 12 12 13 15 18 23 38 63 79 84 92 99 100 102 100 95 95 99 100 101 101 97 91 90 95 101 100 92 84 80 77 72 68 60 48 39 34
22 19 17 15 13 12 12 12 14 18 22 33 55 76 91 101 102 100 103 102 99 99 99 99 102 101 97 93 95 98 101 100 90 80 76 73 72 72 67 52 39 34
29 26 23 21 18 15 13 13 13 16 21 28 39 53 73 91 99 101 101 100 100 100 99 99 100 100 100 99 99 100 101 100 90 79 74 73 73 72 71 63 49 39
36 35 32 29 26 21 17 15 14 15 19 24 29 34 44 61 83 99 101 99 100 99 99 100 99 100 100 99 100 100 101 101 92 81 75 75 74 70 71 71 64 52
44 40 39 37 34 29 24 20 17 17 19 21 22 23 26 40 67 93 101 100 100 101 100 100 100 101 100 98 99 100 101 102 96 85 78 76 72 68 69 72 70 61
54 47 42 42 41 38 34 30 24 19 19 22 23 21 21 30 53 81 98 101 99 100 100 99 99 101 100 99 99 101 101 102 99 89 81 76 70 67 67 67 70 65
59 54 49 49 49 45 41 39 36 29 22 21 23 23 21 21 33 58 85 99 100 100 99 100 100 100 101 100 99 101 101 101 100 92 82 75 70 68 64 65 72 70
60 61 58 61 63 59 53 48 44 41 33 25 22 22 23 27 34 48 68 83 92 99 100 99 99 99 101 100 99 101 101 101 101 93 83 75 71 71 68 69 76 74
60 66 67 70 69 67 66 62 55 51 45 36 28 20 27 48 58 58 65 73 82 94 101 101 101 100 100 100 99 101 101 101 101 94 85 77 73 75 76 76 80 78
66 70 68 67 66 63 64 65 65 61 53 48 40 26 28 58 80 78 75 78 86 97 103 105 104 100 99 100 99 100 101 101 101 98 89 81 76 78 84 86 86 81
65 72 69 63 62 63 64 64 66 68 61 54 51 39 28 44 76 94 89 78 84 99 104 104 104 100 98 100 100 100 101 100 101 101 95 86 81 84 90 94 93 86
64 72 73 67 62 64 68 69 67 69 68 60 56 51 39 32 50 79 90 81 83 97 103 101 101 99 99 100 100 100 100 101 101 100 99 95 90 91 94 98 97 89
82 80 77 71 66 63 66 69 66 64 66 66 62 57 51 41 35 45 63 78 88 95 101 104 101 98 99 99 99 100 99 101 102 100 102 103 98 94 95 98 98 89
92 87 81 76 70 64 60 57 53 47 46 51 57 58 56 52 43 33 36 58 80 87 93 102 102 99 100 100 99 100 99 100 99 97 101 105 100 95 97 99 93 83
92 87 83 79 74 68 60 50 41 35 30 28 32 41 48 53 51 41 31 39 68 91 96 95 97 101 103 102 101 99 99 101 97 95 102 105 100 96 98 96 83 75
95 89 83 77 72 68 62 55 47 39 33 27 21 21 31 43 49 49 38 30 51 90 104 91 89 101 103 101 102 100 99 102 99 98 102 103 100 97 95 91 76 72
98 90 82 75 71 66 61 57 54 50 44 36 26 22 29 38 43 50 49 33 32 66 95 90 86 100 104 100 100 100 101 102 100 100 101 100 100 96 91 86 75 73
98 88 80 74 67 62 57 53 53 59 59 48 40 41 47 51 51 54 55 42 27 43 74 83 81 93 101 99 99 99 101 101 99 101 102 99 98 91 84 83 75 69
96 87 79 74 67 60 55 54 63 75 75 70 73 74 67 70 80 77 65 50 32 32 50 58 62 78 91 95 98 99 99 100 101 101 100 97 93 84 80 85 77 60
82 84 81 75 70 67 60 59 74 92 95 93 102 99 80 81 100 101 80 57 35 30 41 42 44 67 89 96 97 98 99 101 101 101 100 94 83 78 87 94 73 45
63 73 83 78 68 68 71 68 68 83 97 99 103 104 86 76 91 99 89 69 42 28 39 44 38 52 83 101 99 96 100 102 101 102 100 84 72 82 100 92 57 34
74 73 82 79 64 59 71 79 76 83 97 99 100 107 91 67 70 81 84 82 65 39 34 43 39 36 61 93 103 98 100 101 97 92 85 76 79 95 94 66 38 33
97 89 84 75 61 55 61 74 81 85 94 97 101 106 92 66 60 68 77 89 89 64 39 38 42 35 38 64 91 100 98 89 81 77 74 76 84 80 58 37 32 36
102 100 94 78 60 54 55 64 77 84 88 97 104 103 94 80 68 71 85 98 101 86 55 36 42 44 33 34 55 72 73 64 63 68 66 61 55 42 30 31 35 36
99 100 101 88 70 63 58 60 78 93 97 101 104 101 101 98 88 87 98 103 101 96 74 45 41 49 42 31 33 40 41 38 41 47 44 36 30 27 30 35 36 37
98 99 102 98 90 82 67 61 79 97 100 101 101 98 102 104 99 99 103 102 100 101 87 60 47 51 49 38 31 29 30 29 29 31 31 27 26 29 34 39 40 42

ECMWFNIL_500_rhum_009.txt.gz
RH
45 40 38 43 63 70 60 51 45 42 41 43 41 36 32 28 23 18 16 18 23 27 25 29 57 85 92 93 99 103 99 95 99 101 100 100 100 102 101 97 99 100
57 54 51 50 66 81 79 68 58 53 50 50 50 45 38 34 30 22 18 19 24 30 31 33 55 82 90 90 93 99 99 97 97 94 94 96 96 100 101 98 100 101
64 63 67 64 67 79 88 83 69 59 56 54 52 50 46 39 35 29 22 19 22 28 32 40 65 88 96 93 89 90 91 90 93 96 95 92 93 99 100 100 100 99
70 57 58 61 65 73 84 92 82 61 51 51 50 50 50 44 40 36 29 23 21 24 28 40 64 87 100 98 88 86 86 82 87 97 100 98 98 99 99 100 100 100
78 61 48 45 51 61 72 88 95 80 56 45 44 47 50 48 44 41 37 31 24 22 23 30 48 71 93 101 94 88 86 84 90 100 101 98 96 98 100 100 99 100
92 84 69 51 44 49 60 71 86 94 80 56 40 40 46 51 49 46 44 40 32 25 22 23 31 45 66 88 99 98 95 94 96 99 100 99 96 97 100 100 99 101
100 99 95 84 67 58 62 68 77 91 96 81 56 41 41 49 53 52 49 47 42 34 25 22 24 28 37 56 77 92 99 101 101 99 99 100 97 96 99 100 99 101
99 99 101 102 95 81 72 73 79 91 101 99 81 58 45 46 54 57 55 53 52 45 35 27 23 29 39 46 56 73 85 92 98 98 97 98 95 94 99 100 99 101
100 99 98 100 104 103 94 81 77 86 97 102 95 78 60 53 54 56 56 57 58 55 48 37 29 36 55 64 61 67 78 86 95 98 98 98 97 95 99 100 99 101
100 97 99 99 100 105 107 98 88 84 87 95 97 88 75 65 59 54 53 56 59 60 56 50 40 36 54 74 80 85 90 84 88 100 103 100 100 100 99 99 100 100
102 99 99 99 98 99 102 106 105 92 79 79 85 86 77 69 62 55 51 50 56 61 59 57 53 42 43 56 69 88 98 84 80 96 106 102 99 100 100 99 100 100
89 96 98 98 99 99 97 100 107 105 92 81 83 90 84 68 58 55 52 48 51 58 59 58 59 54 49 47 49 60 76 84 92 100 104 104 99 98 101 100 99 100
53 70 80 84 87 93 95 93 95 102 104 95 87 92 93 79 64 57 53 48 47 51 56 57 56 50 42 40 43 46 52 70 93 104 104 102 98 97 99 99 100 100
23 31 40 45 50 64 77 82 83 88 98 102 93 89 92 88 78 66 55 48 45 45 47 50 49 42 30 22 24 32 40 50 70 92 103 103 100 99 98 99 101 99
23 21 20 19 20 26 39 54 64 67 78 96 101 96 93 89 84 78 68 57 50 46 44 42 41 38 33 26 20 18 23 34 50 75 98 103 101 101 100 99 99 99
37 32 26 23 19 18 37 63 73 70 76 91 101 102 99 92 84 81 78 69 61 56 50 44 40 36 30 29 29 19 14 24 41 62 90 104 100 101 102 98 99 102
47 42 38 35 28 30 60 94 100 95 96 101 102 103 102 96 84 77 75 72 66 60 56 49 42 36 29 24 28 27 19 27 42 52 76 102 103 99 102 99 100 100
55 51 47 44 40 44 67 93 101 102 105 105 105 105 102 97 88 79 73 70 65 59 56 52 42 35 30 20 21 29 27 36 53 52 63 96 105 98 101 102 100 93
63 60 59 61 68 72 78 91 99 102 104 105 106 106 103 99 91 81 73 66 60 54 51 51 43 34 30 22 22 35 41 51 64 55 56 88 104 98 101 102 92 82
69 74 77 83 95 97 93 98 101 100 101 104 106 103 100 102 95 81 71 62 57 58 63 68 62 43 30 28 38 59 73 75 73 59 54 75 96 102 103 95 81 73
77 90 91 89 97 100 99 101 100 99 100 101 104 102 98 104 102 85 73 72 77 81 81 82 76 52 32 36 58 83 97 87 70 57 53 65 90 105 98 83 73 72
84 100 101 95 96 96 98 101 99 99 100 98 101 103 99 104 108 96 86 87 94 100 96 88 82 66 50 55 71 87 96 84 61 51 55 68 91 100 85 71 69 66
87 100 102 99 97 93 94 100 100 99 101 99 99 103 104 105 107 105 100 94 92 98 102 96 91 88 82 78 77 76 82 82 62 46 55 71 82 85 76 65 60 62
85 95 97 97 97 92 91 97 100 99 101 100 98 102 105 104 104 102 100 99 98 100 101 94 91 99 98 91 83 69 66 79 71 50 53 66 63 66 76 71 63 68
86 93 96 98 99 93 90 95 100 99 100 100 100 101 99 96 100 101 98 100 101 101 103 98 95 102 101 95 92 72 56 74 80 55 50 58 46 44 63 72 68 63
92 96 94 96 99 94 88 91 98 99 99 100 99 100 100 99 101 103 101 102 101 100 103 101 99 104 99 88 85 71 59 76 83 59 50 55 43 33 40 47 46 39